Airport Information

KYKM - Yakima Air Terminal McAllister Field Airport

KYKM 210553Z AUTO 31007KT 10SM FEW090 12/01 A3003 RMK AO2 SLP170 T01170011 10211 20106 51031 $


  • General Information

  • Coordinates: N 46°34'5"/ W 120°32'38"
  • Location: N/A
  • Surveyed Elevation: 1095 MSL

Operations

Flow Name Active Runways Conditions

Green background denotes normal operations.


Common Frequencies

Callsign Frequency Position Name

More at the Document Center


Charts